GW4079 Weather Reports


Display with metric or nautical units.
time (UTC)temp
F
wind
direction
speed
MPH
gust
MPH
rain 1hr
in
rain 24hr
in
rain mn
in
humidity
%
barometer
mb
20260510230109 78 258 8.0 16.0 0.00 0.00 0.00 18 1013.2
20260510224611 78 225 9.0 16.0 0.00 0.00 0.00 18 1013.3
20260510223104 77 276 11.0 16.0 0.00 0.00 0.00 18 1013.6
20260510221606 77 266 8.0 17.0 0.00 0.00 0.00 18 1013.9
20260510220132 78 277 9.0 14.0 0.00 0.00 0.00 18 1014.1
20260510214615 77 279 13.0 21.0 0.00 0.00 0.00 18 1014.0
20260510213124 77 244 15.0 21.0 0.00 0.00 0.00 19 1014.3
20260510211620 77 257 12.0 21.0 0.00 0.00 0.00 20 1014.4
20260510210109 76 232 10.0 20.0 0.00 0.00 0.00 21 1014.8
20260510204608 76 269 11.0 19.0 0.00 0.00 0.00 21 1014.8
20260510203106 75 275 9.0 19.0 0.00 0.00 0.00 23 1015.0
20260510201605 75 229 12.0 19.0 0.00 0.00 0.00 23 1015.2
20260510200124 75 215 15.0 25.0 0.00 0.00 0.00 24 1015.3
20260510194552 75 254 14.0 22.0 0.00 0.00 0.00 22 1015.4
20260510193042 74 214 13.0 21.0 0.00 0.00 0.00 26 1015.5
20260510191607 74 232 10.0 23.0 0.00 0.00 0.00 27 1015.7
20260510183057 71 237 13.0 27.0 0.00 0.00 0.00 28 1016.3
20260510181556 71 218 14.0 20.0 0.00 0.00 0.00 31 1016.4
20260510180101 71 225 14.0 22.0 0.00 0.00 0.00 31 1016.8
20260510174557 69 235 12.0 19.0 0.00 0.00 0.00 32 1017.1
20260510173055 69 216 11.0 20.0 0.00 0.00 0.00 31 1017.2
20260510171556 68 211 10.0 15.0 0.00 0.00 0.00 35 1017.2
20260510170108 67 205 11.0 19.0 0.00 0.00 0.00 37 1017.3
20260510165041 67 234 11.0 16.0 0.00 0.00 0.00 40 1017.6
20260510163454 64 236 10.0 14.0 0.00 0.00 0.00 43 1017.6
20260510161602 63 221 8.0 15.0 0.00 0.00 0.00 46 1017.7
20260510154547 59 196 9.0 12.0 0.00 0.00 0.00 53 1018.1
20260510153050 58 234 8.0 11.0 0.00 0.00 0.00 55 1018.4
20260510151539 57 223 10.0 15.0 0.00 0.00 0.00 57 1018.4
20260510150103 55 227 8.0 16.0 0.00 0.00 0.00 62 1018.7
20260510144548 54 231 8.0 11.0 0.00 0.00 0.00 65 1018.4
20260510143111 51 214 8.0 10.0 0.00 0.00 0.00 70 1018.6
20260510140158 48 212 7.0 10.0 0.00 0.00 0.00 75 1018.6
20260510134649 47 205 7.0 9.0 0.00 0.00 0.00 77 1018.6
20260510133141 45 214 5.0 7.0 0.00 0.00 0.00 79 1018.5
20260510131557 43 183 3.0 5.0 0.00 0.00 0.00 80 1018.8
20260510130644 42 183 2.0 4.0 0.00 0.00 0.00 82 1018.8
20260510124556 41 183 2.0 3.0 0.00 0.00 0.00 82 1018.8
20260510123109 41 183 2.0 4.0 0.00 0.00 0.00 81 1018.9
20260510121550 41 183 3.0 5.0 0.00 0.00 0.00 81 1018.9
20260510120143 41 180 3.0 4.0 0.00 0.00 0.00 81 1018.8
20260510114551 41 180 2.0 4.0 0.00 0.00 0.00 81 1018.9
20260510113126 42 180 3.0 5.0 0.00 0.00 0.00 79 1019.0
20260510111544 42 183 4.0 6.0 0.00 0.00 0.00 78 1018.9
20260510110044 43 186 5.0 7.0 0.00 0.00 0.00 77 1018.9
20260510104549 44 180 5.0 7.0 0.00 0.00 0.00 76 1018.9
20260510103047 44 175 5.0 7.0 0.00 0.00 0.00 76 1019.0
20260510101539 45 171 5.0 6.0 0.00 0.00 0.00 76 1019.2
20260510100049 45 173 5.0 7.0 0.00 0.00 0.00 75 1019.2
20260510094543 46 168 5.0 6.0 0.00 0.00 0.00 75 1019.1
20260510093056 46 167 5.0 9.0 0.00 0.00 0.00 75 1019.1
20260510091540 44 145 6.0 9.0 0.00 0.00 0.00 78 1019.2
20260510090050 45 130 4.0 5.0 0.00 0.00 0.00 76 1019.4
20260510084816 47 153 4.0 6.0 0.00 0.00 0.00 74 1019.4
20260510083044 44 143 4.0 7.0 0.00 0.00 0.00 80 1019.4
20260510081546 45 99 4.0 6.0 0.00 0.00 0.00 78 1019.7
20260510080058 42 99 4.0 6.0 0.00 0.00 0.00 82 1019.6
20260510074553 42 62 3.0 5.0 0.00 0.00 0.00 79 1019.5
20260510073103 41 65 0.0 4.0 0.00 0.00 0.00 85 1019.6
20260510071600 40 63 2.0 4.0 0.00 0.00 0.00 83 1019.6
20260510070105 43 137 3.0 5.0 0.00 0.00 0.00 80 1019.4
20260510064556 45 157 0.0 0.0 0.00 0.00 0.00 81 1019.4
20260510063109 46 157 0.0 0.0 0.00 0.00 0.00 85 1019.4
20260510061602 46 157 0.0 0.0 0.00 0.00 0.00 82 1019.4
20260510060108 46 157 0.0 0.0 0.00 0.00 0.00 81 1019.3
20260510054605 46 157 0.0 0.0 0.00 0.00 0.00 79 1019.3
20260510053124 47 157 0.0 0.0 0.00 0.00 0.00 78 1019.3
20260510051610 47 157 0.0 0.0 0.00 0.00 0.00 75 1019.4
20260510050050 48 157 1.0 5.0 0.00 0.00 0.00 73 1019.4
20260510044840 50 151 6.0 9.0 0.00 0.00 0.00 71 1019.4
20260510043338 51 143 8.0 12.0 0.00 0.00 0.00 71 1019.2
20260510041610 52 142 10.0 11.0 0.00 0.00 0.00 71 1019.2
20260510040348 53 135 9.0 12.0 0.00 0.00 0.00 69 1019.2
20260510034607 53 138 9.0 12.0 0.00 0.00 0.00 66 1019.0
20260510033114 53 132 9.0 12.0 0.00 0.00 0.00 66 1018.9
20260510031613 54 132 9.0 11.0 0.00 0.00 0.00 66 1018.8
20260510030117 54 133 7.0 11.0 0.00 0.00 0.00 64 1018.7
20260510024555 56 128 8.0 11.0 0.00 0.00 0.00 60 1018.2
20260510023101 58 126 8.0 11.0 0.00 0.00 0.00 56 1018.4
20260510021600 59 111 10.0 13.0 0.00 0.00 0.00 53 1018.1
20260510020056 64 111 5.0 8.0 0.00 0.00 0.00 46 1018.3
20260510014541 64 240 2.0 4.0 0.00 0.00 0.00 42 1018.4
20260510013039 64 242 1.0 5.0 0.00 0.00 0.00 42 1018.5
20260510011545 64 268 2.0 10.0 0.00 0.00 0.00 41 1018.2
20260510010043 64 242 4.0 8.0 0.00 0.00 0.00 41 1018.2
20260510004543 64 261 5.0 10.0 0.00 0.00 0.00 41 1018.5
20260510003051 64 290 9.0 13.0 0.00 0.00 0.00 41 1018.5
20260510001540 65 245 8.0 12.0 0.00 0.00 0.00 41 1018.2
20260510000049 64 257 2.0 8.0 0.00 0.00 0.00 40 1018.2
20260509234554 65 217 6.0 9.0 0.00 0.00 0.00 41 1018.2
20260509233041 65 259 7.0 11.0 0.00 0.00 0.00 40 1018.0
20260509231552 65 284 6.0 10.0 0.00 0.00 0.00 38 1018.2